Location: Austin
(30.3000°N, 97.7500°W)
Time: 03:43:07
(UTC-05:00)

Cosmos 1420 Rocket - Pass Details

Date: 18 March 2023
Orbit: 754 x 779 km, 74.0° (Epoch: 01 April)

Event Time Altitude Azimuth Distance (km) Brightness Sun altitude
Rises 21:09:48 0° 203° (SSW) 3,231 7.4 -19.8°
Reaches altitude 10° 21:12:12 10° 207° (SSW) 2,304 6.6 -20.4°
Maximum altitude 21:17:22 61° 287° (WNW) 864 4.5 -21.4°
Drops below altitude 10° 21:22:32 10° 8° (N) 2,299 6.5 -22.5°
Sets 21:24:56 0° 12° (NNE) 3,225 7.3 -23.0°
